TimeMDT,TemperatureF,Dew PointF,Humidity,Sea Level PressureIn,VisibilityMPH,Wind Direction,Wind SpeedMPH,Gust SpeedMPH,PrecipitationIn,Events,Conditions,WindDirDegrees,DateUTC
12:15 AM,57.2,55.4,94,29.95,10.0,East,6.9,-,N/A,,Partly Cloudy,80,2013-06-12 06:15:00
12:35 AM,57.2,53.6,88,29.97,10.0,ESE,5.8,-,N/A,,Mostly Cloudy,110,2013-06-12 06:35:00
12:55 AM,57.2,53.6,88,29.99,10.0,South,3.5,-,N/A,,Overcast,170,2013-06-12 06:55:00
1:15 AM,57.2,53.6,88,30.01,10.0,West,4.6,-,N/A,,Overcast,270,2013-06-12 07:15:00
1:35 AM,57.2,55.4,94,30.01,10.0,NNW,6.9,-,N/A,,Overcast,330,2013-06-12 07:35:00
1:55 AM,57.2,55.4,94,30.02,10.0,North,9.2,-,N/A,,Overcast,350,2013-06-12 07:55:00
2:15 AM,57.2,53.6,88,30.03,10.0,North,9.2,-,N/A,,Overcast,350,2013-06-12 08:15:00
2:35 AM,57.2,53.6,88,30.04,9.0,NNW,9.2,-,N/A,,Overcast,330,2013-06-12 08:35:00
2:55 AM,57.2,53.6,88,30.05,10.0,NNW,8.1,-,N/A,,Overcast,340,2013-06-12 08:55:00
3:15 AM,55.4,53.6,94,30.05,10.0,North,8.1,-,N/A,,Overcast,360,2013-06-12 09:15:00
3:35 AM,55.4,53.6,94,30.04,10.0,NE,8.1,-,N/A,,Mostly Cloudy,50,2013-06-12 09:35:00
3:55 AM,55.4,51.8,88,30.04,10.0,NE,9.2,-,N/A,,Mostly Cloudy,50,2013-06-12 09:55:00
4:15 AM,55.4,51.8,88,30.04,10.0,ENE,8.1,-,N/A,,Scattered Clouds,60,2013-06-12 10:15:00
4:35 AM,55.4,51.8,88,30.05,10.0,NE,9.2,-,N/A,,Partly Cloudy,50,2013-06-12 10:35:00
4:55 AM,55.4,51.8,88,30.08,10.0,North,9.2,-,N/A,,Mostly Cloudy,10,2013-06-12 10:55:00
5:15 AM,55.4,51.8,88,30.08,10.0,NNE,10.4,-,N/A,,Mostly Cloudy,20,2013-06-12 11:15:00
5:35 AM,55.4,51.8,88,30.09,10.0,NNE,5.8,-,N/A,,Partly Cloudy,30,2013-06-12 11:35:00
5:55 AM,53.6,51.8,94,30.09,10.0,ENE,6.9,-,N/A,,Clear,60,2013-06-12 11:55:00
6:15 AM,53.6,51.8,94,30.09,10.0,NE,6.9,-,N/A,,Clear,50,2013-06-12 12:15:00
6:35 AM,55.4,51.8,88,30.09,10.0,NE,8.1,-,N/A,,Clear,50,2013-06-12 12:35:00
6:55 AM,55.4,51.8,88,30.09,10.0,NE,10.4,-,N/A,,Clear,50,2013-06-12 12:55:00
7:15 AM,57.2,53.6,88,30.09,10.0,East,9.2,-,N/A,,Clear,80,2013-06-12 13:15:00
7:35 AM,57.2,53.6,88,30.11,10.0,East,9.2,-,N/A,,Clear,80,2013-06-12 13:35:00
7:55 AM,60.8,53.6,77,30.11,10.0,East,10.4,-,N/A,,Partly Cloudy,90,2013-06-12 13:55:00
8:15 AM,60.8,53.6,77,30.11,10.0,East,12.7,-,N/A,,Partly Cloudy,100,2013-06-12 14:15:00
8:35 AM,62.6,53.6,72,30.11,10.0,East,15.0,-,N/A,,Clear,90,2013-06-12 14:35:00
8:55 AM,62.6,53.6,72,30.12,10.0,ESE,12.7,-,N/A,,Partly Cloudy,110,2013-06-12 14:55:00
9:35 AM,64.4,53.6,68,30.12,10.0,East,12.7,17.3,N/A,,Mostly Cloudy,100,2013-06-12 15:35:00
9:55 AM,64.4,55.4,73,30.11,10.0,ESE,12.7,-,N/A,,Scattered Clouds,120,2013-06-12 15:55:00
10:15 AM,64.4,53.6,68,30.12,10.0,ESE,12.7,-,N/A,,Mostly Cloudy,110,2013-06-12 16:15:00
10:35 AM,64.4,53.6,68,30.12,10.0,SE,9.2,-,N/A,,Overcast,140,2013-06-12 16:35:00
10:55 AM,66.2,53.6,64,30.12,10.0,SSE,9.2,-,N/A,,Scattered Clouds,160,2013-06-12 16:55:00
11:15 AM,66.2,55.4,68,30.12,10.0,SSE,9.2,-,N/A,,Scattered Clouds,150,2013-06-12 17:15:00
11:35 AM,66.2,53.6,64,30.12,10.0,SE,13.8,18.4,N/A,,Mostly Cloudy,130,2013-06-12 17:35:00
11:55 AM,68.0,53.6,60,30.11,10.0,SSE,16.1,-,N/A,,Scattered Clouds,150,2013-06-12 17:55:00
12:15 PM,68.0,53.6,60,30.12,10.0,SSE,16.1,-,N/A,,Partly Cloudy,160,2013-06-12 18:15:00
12:35 PM,68.0,55.4,64,30.12,10.0,SSE,16.1,-,N/A,,Scattered Clouds,160,2013-06-12 18:35:00
12:55 PM,69.8,53.6,56,30.12,10.0,SSE,12.7,19.6,N/A,,Overcast,150,2013-06-12 18:55:00
1:15 PM,69.8,53.6,56,30.12,10.0,South,11.5,-,N/A,,Mostly Cloudy,170,2013-06-12 19:15:00
1:35 PM,69.8,53.6,56,30.12,10.0,South,13.8,-,N/A,,Mostly Cloudy,180,2013-06-12 19:35:00
1:55 PM,71.6,55.4,57,30.12,10.0,South,11.5,16.1,N/A,,Overcast,180,2013-06-12 19:55:00
2:15 PM,69.8,55.4,60,30.11,10.0,South,15.0,18.4,N/A,,Mostly Cloudy,180,2013-06-12 20:15:00
2:35 PM,71.6,55.4,57,30.10,10.0,SSE,13.8,18.4,N/A,,Scattered Clouds,150,2013-06-12 20:35:00
2:55 PM,71.6,55.4,57,30.10,10.0,SSE,11.5,-,N/A,,Partly Cloudy,150,2013-06-12 20:55:00
3:35 PM,71.6,55.4,57,30.09,10.0,SSE,15.0,18.4,N/A,,Scattered Clouds,150,2013-06-12 21:35:00
3:55 PM,71.6,53.6,53,30.10,10.0,SSE,13.8,-,N/A,,Partly Cloudy,160,2013-06-12 21:55:00
4:15 PM,71.6,53.6,53,30.09,10.0,SSE,12.7,19.6,N/A,,Clear,160,2013-06-12 22:15:00
4:35 PM,71.6,53.6,53,30.09,10.0,SSE,13.8,17.3,N/A,,Partly Cloudy,160,2013-06-12 22:35:00
4:55 PM,71.6,55.4,57,30.09,10.0,SSE,16.1,-,N/A,,Clear,150,2013-06-12 22:55:00
5:15 PM,71.6,55.4,57,30.09,10.0,SSE,15.0,20.7,N/A,,Clear,160,2013-06-12 23:15:00
5:35 PM,69.8,53.6,56,30.08,10.0,SE,13.8,-,N/A,,Clear,140,2013-06-12 23:35:00
5:55 PM,71.6,55.4,57,30.07,10.0,SE,13.8,-,N/A,,Clear,140,2013-06-12 23:55:00
6:15 PM,71.6,55.4,57,30.07,10.0,SSE,16.1,-,N/A,,Clear,150,2013-06-13 00:15:00
6:35 PM,69.8,53.6,56,30.07,10.0,SSE,13.8,-,N/A,,Clear,150,2013-06-13 00:35:00
6:55 PM,69.8,53.6,56,30.08,10.0,SSE,11.5,-,N/A,,Clear,150,2013-06-13 00:55:00
7:15 PM,69.8,53.6,56,30.08,10.0,SSE,10.4,-,N/A,,Clear,150,2013-06-13 01:15:00
7:35 PM,69.8,53.6,56,30.07,10.0,SSE,10.4,-,N/A,,Clear,150,2013-06-13 01:35:00
7:55 PM,69.8,53.6,56,30.07,10.0,SE,11.5,-,N/A,,Clear,140,2013-06-13 01:55:00
8:15 PM,68.0,51.8,56,30.07,10.0,ESE,8.1,-,N/A,,Clear,110,2013-06-13 02:15:00
8:35 PM,66.2,51.8,60,30.06,10.0,ESE,9.2,-,N/A,,Clear,110,2013-06-13 02:35:00
8:55 PM,64.4,51.8,64,30.06,10.0,ESE,10.4,-,N/A,,Clear,110,2013-06-13 02:55:00
9:15 PM,64.4,51.8,64,30.07,10.0,East,9.2,-,N/A,,Clear,100,2013-06-13 03:15:00
9:35 PM,64.4,51.8,64,30.07,10.0,ESE,10.4,-,N/A,,Clear,110,2013-06-13 03:35:00
9:55 PM,64.4,51.8,64,30.09,10.0,ESE,6.9,-,N/A,,Clear,120,2013-06-13 03:55:00
10:15 PM,62.6,53.6,72,30.10,10.0,ESE,6.9,-,N/A,,Clear,120,2013-06-13 04:15:00
10:35 PM,62.6,53.6,72,30.10,10.0,SE,9.2,-,N/A,,Mostly Cloudy,130,2013-06-13 04:35:00
10:56 PM,62.6,53.6,72,30.10,10.0,ESE,9.2,-,N/A,,Scattered Clouds,120,2013-06-13 04:56:00
11:15 PM,62.6,53.6,72,30.10,10.0,ESE,8.1,-,N/A,,Scattered Clouds,110,2013-06-13 05:15:00
11:35 PM,60.8,53.6,77,30.09,10.0,ESE,10.4,-,N/A,,Scattered Clouds,110,2013-06-13 05:35:00
11:55 PM,60.8,53.6,77,30.09,10.0,East,6.9,-,N/A,,Clear,90,2013-06-13 05:55:00